Date String (YYYY-MM-DD hh:mm:ss) UTC,Instrument flags,Ambient pressure (hPa),Sample flow (lpm),Bypass flow (lpm),Sample temperature (°C),Ambient temperature (°C),ASC tube jacket temperature (°C),LED temperature (°C),Box temperature (°C),Sample RH (%),Span deviation,Mass concentration (μg/m³),Mass concentration (μg/m³),Mass concentration (μg/m³)
DateTimeUTC,F1_M11,P_M11,Q1_M11,Q2_M11,T1_M11,T2_M11,T3_M11,T4_M11,T5_M11,U1_M11,ZSPAN_M11,X0_M11,X2_M11,X1_M11
2022-02-14 21:00:00,,0823.2,5.02,0.00,27.3,26.5,00.0,36.1,29.1,09.0,0000.0,0013.62,0006.04,0005.27
2022-02-14 21:01:00,,0823.2,5.00,0.00,27.3,26.5,00.0,36.2,29.1,08.9,0000.0,0013.19,0006.06,0005.28
2022-02-14 21:02:00,,0823.2,4.99,0.00,27.3,26.5,00.0,36.2,29.1,09.0,0000.0,0013.19,0006.03,0005.29
2022-02-14 21:03:00,,0823.2,5.01,0.00,27.3,26.5,00.0,36.2,29.1,09.2,0000.0,0012.74,0005.99,0005.30
2022-02-14 21:04:00,,0823.1,4.99,0.00,27.3,26.5,00.0,36.2,29.1,09.2,0000.0,0012.12,0006.00,0005.32
2022-02-14 21:05:00,,0823.0,5.02,0.00,27.3,26.5,00.0,36.2,29.1,09.2,0000.0,0011.86,0006.00,0005.33
2022-02-14 21:06:00,,0822.9,4.99,0.00,27.3,26.5,00.0,36.2,29.1,08.9,0000.0,0012.02,0006.03,0005.35
2022-02-14 21:07:00,,0822.9,5.00,0.00,27.3,26.5,00.0,36.2,29.1,08.9,0000.0,0011.74,0006.01,0005.35
2022-02-14 21:08:00,,0823.0,4.99,0.00,27.3,26.5,00.0,36.2,29.0,09.0,0000.0,0011.79,0006.04,0005.36
2022-02-14 21:09:00,,0823.0,5.01,0.00,27.3,26.5,00.0,36.2,29.0,09.0,0000.6,0011.86,0006.08,0005.37
2022-02-14 21:10:00,,0823.0,4.99,0.00,27.2,26.4,00.0,36.2,29.0,09.2,0002.5,0012.33,0006.14,0005.38
2022-02-14 21:11:00,,0822.9,5.01,0.00,27.2,26.4,00.0,36.2,29.0,09.0,0000.0,0012.37,0006.15,0005.40
2022-02-14 21:12:00,,0823.0,4.99,0.00,27.2,26.4,00.0,36.2,29.0,08.9,0000.0,0012.57,0006.16,0005.40
2022-02-14 21:13:00,,0822.9,5.00,0.00,27.2,26.4,00.0,36.2,29.0,09.0,0000.0,0012.62,0006.20,0005.41
2022-02-14 21:14:00,,0822.8,5.00,0.00,27.2,26.4,00.0,36.2,29.0,09.3,0000.0,0012.86,0006.27,0005.43
2022-02-14 21:15:00,,0822.7,4.99,0.00,27.2,26.3,00.0,36.2,29.0,09.4,0000.0,0012.92,0006.32,0005.45
2022-02-14 21:16:00,,0822.7,5.00,0.00,27.2,26.3,00.0,36.1,28.9,09.4,0000.0,0013.30,0006.37,0005.45
2022-02-14 21:17:00,,0822.7,5.00,0.00,27.1,26.3,00.0,36.1,28.9,09.3,0000.0,0013.66,0006.36,0005.45
2022-02-14 21:18:00,,0822.6,5.00,0.00,27.1,26.3,00.0,36.1,28.9,09.3,0000.0,0014.16,0006.38,0005.45
2022-02-14 21:19:00,,0822.6,5.01,0.00,27.1,26.2,00.0,36.1,28.9,09.5,0000.0,0014.16,0006.40,0005.44
2022-02-14 21:20:00,,0822.7,4.98,0.00,27.1,26.2,00.0,36.1,28.8,09.6,0000.0,0013.81,0006.40,0005.46
2022-02-14 21:21:00,,0822.7,5.02,0.00,27.1,26.2,00.0,36.1,28.8,09.8,0000.0,0014.20,0006.36,0005.44
2022-02-14 21:22:00,,0822.8,4.99,0.00,27.0,26.2,00.0,36.1,28.8,10.1,0000.0,0014.35,0006.36,0005.44
2022-02-14 21:23:00,,0822.7,5.01,0.00,27.0,26.1,00.0,36.1,28.8,10.2,0000.0,0015.38,0006.39,0005.43
2022-02-14 21:24:00,,0822.7,5.01,0.00,27.0,26.1,00.0,36.1,28.8,10.3,0000.0,0015.39,0006.34,0005.39
2022-02-14 21:25:00,,0822.8,5.00,0.00,27.0,26.1,00.0,36.0,28.8,10.0,0000.0,0015.16,0006.30,0005.37
2022-02-14 21:26:00,,0822.7,5.02,0.00,27.0,26.1,00.0,36.0,28.8,10.0,0000.0,0015.25,0006.25,0005.34
2022-02-14 21:27:00,,0822.7,5.00,0.00,27.0,26.0,00.0,36.0,28.8,10.2,0000.0,0014.88,0006.19,0005.32
2022-02-14 21:28:00,,0822.6,4.99,0.00,27.0,25.9,00.0,36.0,28.7,10.4,0000.0,0014.02,0006.17,0005.30
2022-02-14 21:29:00,,0822.6,5.00,0.00,27.0,26.0,00.0,36.0,28.7,10.5,0000.0,0013.44,0006.16,0005.28
2022-02-14 21:30:00,,0822.8,5.00,0.00,27.0,26.0,00.0,36.0,28.7,10.7,0000.0,0013.64,0006.20,0005.26
2022-02-14 21:31:00,,0822.9,4.99,0.00,27.0,26.0,00.0,36.0,28.7,10.7,0000.0,0013.70,0006.16,0005.24
2022-02-14 21:32:00,,0823.0,5.00,0.00,27.0,26.1,00.0,36.0,28.8,10.8,0000.0,0013.29,0006.15,0005.23
2022-02-14 21:33:00,,0822.9,5.01,0.00,27.0,26.1,00.0,35.9,28.8,11.0,0000.0,0013.28,0006.12,0005.20
2022-02-14 21:34:00,,0822.8,5.00,0.00,27.0,26.2,00.0,35.9,28.8,10.9,0000.0,0012.36,0006.09,0005.19
2022-02-14 21:35:00,,0822.7,4.99,0.00,27.0,26.2,00.0,35.9,28.8,10.7,0000.0,0012.32,0006.11,0005.19
2022-02-14 21:36:00,,0822.6,5.01,0.00,27.0,26.2,00.0,35.9,28.8,10.3,0000.0,0012.29,0006.11,0005.18
2022-02-14 21:37:00,,0822.6,4.99,0.00,27.0,26.2,00.0,36.0,28.8,10.2,0000.0,0012.16,0006.14,0005.19
2022-02-14 21:38:00,,0822.6,5.00,0.00,27.0,26.2,00.0,36.0,28.8,09.9,0000.0,0012.95,0006.19,0005.20
2022-02-14 21:39:00,,0822.6,5.00,0.00,27.0,26.2,00.0,35.9,28.8,09.8,0000.0,0013.32,0006.20,0005.21
2022-02-14 21:40:00,,0822.7,5.00,0.00,27.0,26.2,00.0,36.0,28.8,09.9,0000.0,0013.30,0006.18,0005.22
2022-02-14 21:41:00,,0822.7,4.99,0.00,27.0,26.2,00.0,36.0,28.8,09.8,0000.0,0013.13,0006.11,0005.22
2022-02-14 21:42:00,,0822.7,5.01,0.00,27.0,26.2,00.0,36.0,28.8,09.9,0000.0,0013.62,0006.13,0005.23
2022-02-14 21:43:00,,0822.7,5.00,0.00,27.0,26.2,00.0,36.0,28.9,10.0,0000.0,0013.17,0006.19,0005.24
2022-02-14 21:44:00,,0822.7,5.01,0.00,27.0,26.3,00.0,36.0,28.9,10.0,0000.0,0013.63,0006.23,0005.27
2022-02-14 21:45:00,,0822.6,5.00,0.00,27.0,26.2,00.0,36.0,28.9,09.9,0000.0,0013.65,0006.24,0005.30
2022-02-14 21:46:00,,0822.5,4.99,0.00,27.0,26.2,00.0,36.0,28.8,10.1,0000.0,0014.36,0006.23,0005.32
2022-02-14 21:47:00,,0822.6,5.02,0.00,27.0,26.2,00.0,36.0,28.8,10.0,0000.0,0014.38,0006.24,0005.35
2022-02-14 21:48:00,,0822.6,4.99,0.00,27.0,26.2,00.0,36.0,28.9,10.3,0000.0,0014.52,0006.21,0005.36
2022-02-14 21:49:00,,0822.6,5.01,0.00,27.0,26.3,00.0,36.0,28.8,10.4,0000.0,0014.51,0006.23,0005.38
2022-02-14 21:50:00,,0822.5,5.00,0.00,27.0,26.3,00.0,36.0,28.8,10.6,0000.0,0014.27,0006.25,0005.39
2022-02-14 21:51:00,,0822.4,4.99,0.00,27.0,26.2,00.0,36.0,28.8,10.3,0000.0,0014.47,0006.32,0005.40
2022-02-14 21:52:00,,0822.4,5.00,0.00,27.0,26.2,00.0,36.0,28.8,10.3,0000.0,0014.41,0006.36,0005.42
2022-02-14 21:53:00,,0822.4,4.98,0.00,27.0,26.1,00.0,36.0,28.8,10.3,0000.0,0014.17,0006.34,0005.43
2022-02-14 21:54:00,,0822.3,5.00,0.00,27.0,26.1,00.0,35.9,28.7,10.2,0000.0,0014.33,0006.31,0005.44
2022-02-14 21:55:00,,0822.3,5.00,0.00,27.0,26.1,00.0,35.9,28.7,10.3,0000.0,0013.80,0006.30,0005.43
2022-02-14 21:56:00,,0822.3,5.00,0.00,26.9,26.1,00.0,35.9,28.7,10.2,0000.0,0013.73,0006.34,0005.44
2022-02-14 21:57:00,,0822.3,5.01,0.00,26.9,26.1,00.0,35.9,28.6,10.1,0000.0,0013.34,0006.41,0005.45
2022-02-14 21:58:00,,0822.4,4.99,0.00,26.9,26.1,00.0,35.9,28.6,10.2,0000.0,0013.89,0006.43,0005.45
2022-02-14 21:59:00,,0822.3,5.00,0.00,26.9,26.0,00.0,35.9,28.6,10.2,0000.0,0013.84,0006.51,0005.47
